Grand Canyon, AZ

2:03 PM MST on September 26, 2016 (GMT -0700)
Grand Canyon National Park

Weather History for KGCN - November, 2012

Change the Weather History Date:

Monday, November 26, 2012

  Actual Average Record
Temperature  
Mean Temperature 38 °F -  
Max Temperature 59 °F 46 °F 66 °F (1998)
Min Temperature 16 °F 16 °F 0 °F (2001)
Degree Days  
Heating Degree Days 28    
Moisture  
Dew Point 9 °F    
Average Humidity 40    
Maximum Humidity 59    
Minimum Humidity 18    
Precipitation  
Precipitation 0.00 in - - ()
Sea Level Pressure  
Sea Level Pressure 30.19 in    
Wind  
Wind Speed 1 mph (NNE)    
Max Wind Speed 7 mph    
Max Gust Speed -    
Visibility 10 miles    
Events      
Averages and records for this station are not official NWS values.
T = Trace of Precipitation, MM = Missing Value Source: NWS Daily Summary

Daily Weather History Graph

Daily Weather History Graph

Search for Another Location

Airport or City:

Trip Planner

Search our weather history database for the weather conditions in past years. The results will help you decide how hot, cold, wet, or windy it might be!

Date:

Astronomy

Nov. 26, 2012 Rise Set
Actual Time 7:16 AM MST 5:15 PM MST
Civil Twilight 6:48 AM MST 5:43 PM MST
Nautical Twilight 6:17 AM MST 6:15 PM MST
Astronomical Twilight 5:46 AM MST 6:45 PM MST
Moon 4:08 PM MST 5:32 AM MST
Length of Visible Light 10h 55m
Length of Day
9h 59m
Waxing Gibbous, 97% of the Moon is Illuminated
Nov 26
Waxing Gibbous
Nov 28
Full
Dec 6
Last Quarter
Dec 13
New
Dec 19
First Quarter

Hourly Weather History & Observations

Time (MST) Temp. Windchill Dew Point Humidity Pressure Visibility Wind Dir Wind Speed Gust Speed Precip Events Conditions
12:54 AM 19.9 °F - 3.9 °F 50% 30.05 in 10.0 mi Calm Calm - N/A   Clear
1:54 AM 19.0 °F - 3.0 °F 50% 30.05 in 10.0 mi Calm Calm - N/A   Clear
2:54 AM 18.0 °F - 3.9 °F 54% 30.06 in 10.0 mi Calm Calm - N/A   Clear
3:54 AM 16.0 °F - 3.0 °F 57% 30.07 in 10.0 mi Calm Calm - N/A   Clear
4:54 AM 18.0 °F - 5.0 °F 57% 30.08 in 10.0 mi Calm Calm - N/A   Clear
5:54 AM 18.0 °F - 5.0 °F 57% 30.21 in 10.0 mi Calm Calm - N/A   Clear
6:54 AM 17.1 °F - 5.0 °F 59% 30.24 in 10.0 mi Calm Calm - N/A   Clear
7:54 AM 21.0 °F - 8.1 °F 57% 30.25 in 10.0 mi Calm Calm - N/A   Clear
8:54 AM 33.1 °F - 14.0 °F 46% 30.23 in 10.0 mi Calm Calm - N/A   Clear
9:54 AM 50.0 °F - 17.1 °F 27% 30.18 in 10.0 mi Calm Calm - N/A   Clear
10:54 AM 55.0 °F - 14.0 °F 20% 30.19 in 10.0 mi Variable 4.6 mph - N/A   Clear
11:54 AM 55.9 °F - 12.9 °F 18% 30.18 in 10.0 mi Calm Calm - N/A   Clear
12:54 PM 57.9 °F - 14.0 °F 18% 30.14 in 10.0 mi Variable 4.6 mph - N/A   Clear
1:54 PM 59.0 °F - 16.0 °F 19% 30.14 in 10.0 mi SW 6.9 mph - N/A   Clear
2:54 PM 57.9 °F - 15.1 °F 19% 30.14 in 10.0 mi Calm Calm - N/A   Clear
3:54 PM 57.9 °F - 14.0 °F 18% 30.16 in 10.0 mi WSW 4.6 mph - N/A   Clear
4:54 PM 53.1 °F - 10.9 °F 19% 30.18 in 10.0 mi NNE 4.6 mph - N/A   Clear
5:54 PM 35.1 °F 32.2 °F 8.1 °F 33% 30.29 in 10.0 mi NE 3.5 mph - N/A   Clear
6:54 PM 28.0 °F 24.2 °F 5.0 °F 38% 30.34 in 10.0 mi NE 3.5 mph - N/A   Clear
7:54 PM 27.0 °F - 7.0 °F 43% 30.35 in 10.0 mi Calm Calm - N/A   Clear
8:54 PM 24.1 °F - 6.1 °F 46% 30.32 in 10.0 mi Calm Calm - N/A   Clear
9:54 PM 25.0 °F 18.1 °F 7.0 °F 46% 30.25 in 10.0 mi NE 5.8 mph - N/A   Clear
10:54 PM 21.0 °F - 5.0 °F 50% 30.27 in 10.0 mi Calm Calm - N/A   Clear
11:54 PM 19.0 °F - 3.0 °F 50% 30.27 in 10.0 mi Calm Calm - N/A   Clear